[[{"header":{"parameterUnit":"m.s-1","parameterCategory":2,"la1":30.2991,"la2":30.254,"lo1":-89.0895,"lo2":-89.0444,"dy":0.0017,"dx":0.0017,"nx":28,"ny":28,"refTime":"2023-07-18T21:00:00:Z","depth":"0","parameterNumber":2,"parameterNumberName":"U-component_of_CURRENTS"},"data":[0,0,0,0,0,0,0,0,0,0,0,0,0,0,0,0,0,0,0,0,0,0,0,0,0,0,0,0,0,0,0,0,0,0,0,0,0,0,0,0,0,0,0,0,0,0,0,0,0,0,0,0,0,0,0,0,0,0,0.2669,0.2671,0,0.2719,0.2719,0.2719,0.2626,0.2624,0.2621,0.2619,0.2611,0.2613,0.2615,0,0,0,0,0,0,0,0,0,0,0,0,0,0.2617,0.2617,0.2669,0.2671,0.2672,0.2719,0.2719,0.2719,0.2626,0.2623,0.2621,0.2618,0.261,0.2613,0.2615,0,0,0,0,0,0,0,0,0,0,0,0,0,0.2643,0.2617,0.2669,0.2637,0.2635,0.2719,0.2719,0.2719,0.2627,0.2623,0.262,0.2616,0.261,0.2613,0.2616,0.2708,0,0,0.2625,0.2626,0,0,0,0,0,0,0,0,0.2642,0.2644,0.264,0.2639,0.2637,0.2669,0.2698,0.2715,0.2628,0.2622,0.2619,0.2615,0.2633,0.2634,0.2642,0.2707,0.2707,0.2625,0.2627,0.2629,0.2629,0,0,0,0,0,0,0,0.264,0.2643,0.2682,0.2642,0.264,0.2663,0.266,0.2701,0.2641,0.2623,0.2618,0.2636,0.263,0.2639,0.2641,0.2707,0.2625,0.2628,0.263,0.2631,0.3009,0.3017,0,0,0,0,0,0,0.2646,0.2641,0.268,0.2684,0.2639,0.2666,0.2664,0.2657,0.2641,0.2638,0.2639,0.2632,0.2635,0.2637,0.264,0.2846,0.2629,0.2631,0.2633,0.3001,0.3011,0.302,0,0,0,0,0,0,0.2645,0.2648,0.2678,0.2671,0.2677,0.2671,0.2664,0.266,0.2682,0.2656,0.2649,0.2668,0.2633,0.2636,0.2733,0.284,0.2633,0.2636,0.2991,0.3004,0.3015,0.3194,0,0,0,0,0,0,0.2642,0.2647,0.2661,0.267,0.2678,0.2778,0.2668,0.2664,0.2702,0.2692,0.268,0.2673,0.263,0.273,0.2736,0.2841,0.2638,0.2981,0.2997,0.3011,0.3178,0.3211,0.324,0,0,0,0,0,0.264,0.2691,0.266,0.2667,0.269,0.2783,0.2792,0.2769,0.2707,0.2764,0.2756,0.2674,0.2832,0.2738,0.2744,0.2852,0.2973,0.2992,0.301,0.3164,0.3205,0.3239,0,0,0,0,0,0,0.2669,0.2687,0.2653,0.2701,0.2756,0.2771,0.2826,0.2801,0.2838,0.2819,0.2763,0.2764,0.2895,0.2877,0.2774,0.3021,0.2898,0.2918,0.3013,0.3051,0.3081,0.3017,0.2641,0,0,0,0,0,0.2685,0.2731,0.275,0.2799,0.2827,0.2828,0.2863,0.2851,0.288,0.2888,0.289,0.2916,0.2983,0.3011,0.3065,0.319,0.3136,0.3279,0.3309,0.3334,0.3299,0.34,0.3433,0.308,0.308,0.308,0,0,0.2707,0.2731,0.2751,0.2813,0.2839,0.2924,0.2839,0.2918,0.2989,0.2889,0.3002,0.3023,0.3047,0.3187,0.3246,0.3175,0.3407,0.3358,0.3378,0.3327,0.3422,0.3455,0.3484,0.3092,0.309,0.3088,0,0,0.2817,0.2801,0.2886,0.294,0.3011,0.3024,0.3057,0.3103,0.3122,0.3235,0.3199,0.328,0.3375,0.3415,0.3441,0.3687,0.3572,0.3735,0.3821,0.3923,0.395,0.3973,0.3911,0.3927,0.3743,0.3743,0.3744,0,0.2843,0.2929,0.2936,0.3038,0.3087,0.3077,0.3175,0.3228,0.3305,0.3327,0.33,0.345,0.3477,0.362,0.3709,0.3746,0.3729,0.366,0.3953,0.3975,0.3995,0.3927,0.3942,0.3754,0.3753,0.3752,0.3751,0,0.3013,0.3081,0.315,0.3253,0.3317,0.3413,0.3463,0.3531,0.3536,0.3556,0.369,0.3738,0.3793,0.3874,0.3853,0.4042,0.3954,0.3977,0.3829,0.404,0.3956,0.3969,0.377,0.3766,0.3762,0.376,0,0,0.3061,0.3229,0.3249,0.3305,0.3423,0.3483,0.3616,0.3708,0.3743,0.3844,0.3906,0.4065,0.4028,0.4061,0.4082,0.4179,0.4313,0.4141,0.4142,0.4021,0.4428,0.4077,0.4053,0.4398,0.4403,0.4407,0.4294,0,0.3187,0.3389,0.3436,0.3603,0.37,0.3712,0.3818,0.3889,0.3928,0.3999,0.4053,0.413,0.4125,0.4143,0.4256,0.4308,0.4361,0.4332,0.4289,0.4284,0.3902,0.4064,0.383,0.3687,0.4304,0.4306,0.4308,0,0.3341,0.3446,0.3627,0.3735,0.3767,0.3846,0.3924,0.4018,0.4102,0.412,0.4185,0.4196,0.4327,0.4305,0.4445,0.4429,0.4428,0.4453,0.4451,0.4053,0.3957,0.3594,0.3684,0.3598,0.4325,0.4323,0.4322,0,0.3385,0.3569,0.3699,0.3749,0.3881,0.3917,0.3965,0.4042,0.4089,0.4177,0.4185,0.4316,0.435,0.4451,0.4446,0.4479,0.4546,0.4599,0.4256,0.4225,0.397,0.3907,0.3911,0.4686,0.4686,0.4686,0.4687,0,0.3511,0.3604,0.3712,0.3783,0.3879,0.3937,0.4011,0.4064,0.4121,0.4161,0.4228,0.4261,0.4404,0.4429,0.4463,0.433,0.4548,0.4242,0.4198,0.402,0.3967,0.3827,0.381,0.4682,0.4683,0.4684,0.4685,0,0.3574,0.3653,0.3791,0.39,0.3918,0.3979,0.4026,0.4062,0.4103,0.4154,0.4175,0.4245,0.4236,0.4265,0.4365,0.4268,0.4072,0.413,0.38,0.3717,0.3263,0.3263,0.3015,0.296,0.3737,0.3728,0.372,0,0.3653,0.374,0.3856,0.3899,0.3943,0.4007,0.4035,0.4069,0.4084,0.4124,0.414,0.4119,0.4064,0.3962,0.3819,0.3682,0.3716,0.3342,0.337,0.3165,0.3142,0.3102,0.3081,0.3109,0.3097,0.3087,0.3079,0,0.3788,0.3808,0.3895,0.397,0.4004,0.4024,0.4045,0.403,0.4042,0.4032,0.3962,0.3909,0.372,0.3441,0.3191,0.3114,0.3124,0.3122,0.3101,0.2761,0.2541,0.2489,0.3161,0.2992,0.3001,0.3007,0.3012,0.3015,0.3863,0.3929,0.4,0.4034,0.4051,0.3979,0.3888,0.3871,0.3801,0.3629,0.3738,0.3481,0.3189,0.2781,0.2672,0.2245,0.2435,0.2151,0.2193,0.2191,0.2057,0.2397,0.2063,0.2066,0.2069,0.2071,0.2073,0,0.3929,0.3974,0.4047,0.402,0.393,0.3946,0.3835,0.365,0.3438,0.3329,0.318,0.2722,0.2366,0.2104,0.1626,0.1416,0.1463,0.135,0.1385,0.1444,0.1909,0.1801,0.1165,0.1165,0.1166,0.1166,0.1166,0.1166,0.3971,0.4013,0.4007,0.3862,0.3797,0.3533,0.3386,0.3154,0.2975,0.2521,0.2173,0.2041,0.1762,0.1307,0.0944,0.0891,0.0929,0.0704,0.0882,0.1332,0.1418,0.15,0.1401,0.0692,0.0691,0.0376,0.0373,0.0371]},{"header":{"parameterUnit":"m.s-1","parameterCategory":2,"la1":30.2991,"la2":30.254,"lo1":-89.0895,"lo2":-89.0444,"dy":0.0017,"dx":0.0017,"nx":28,"ny":28,"refTime":"2023-07-18T21:00:00:Z","depth":"0","parameterNumber":3,"parameterNumberName":"V-component_of_CURRENTS"},"data":[0,0,0,0,0,0,0,0,0,0,0,0,0,0,0,0,0,0,0,0,0,0,0,0,0,0,0,0,0,0,0,0,0,0,0,0,0,0,0,0,0,0,0,0,0,0,0,0,0,0,0,0,0,0,0,0,0,0,0.0304,0.0304,0,0.0286,0.0286,0.0286,0.0294,0.0295,0.0295,0.0296,0.0354,0.0355,0.0356,0,0,0,0,0,0,0,0,0,0,0,0,0,0.0308,0.0308,0.0304,0.0304,0.0304,0.0286,0.0286,0.0285,0.0294,0.0295,0.0296,0.0296,0.0353,0.0354,0.0356,0,0,0,0,0,0,0,0,0,0,0,0,0,0.0299,0.0308,0.0304,0.0306,0.0306,0.0286,0.0286,0.0285,0.0294,0.0295,0.0296,0.0296,0.0353,0.0354,0.0356,0.0351,0,0,0.0361,0.0362,0,0,0,0,0,0,0,0,0.03,0.0299,0.0306,0.0306,0.0306,0.0294,0.0308,0.0311,0.0294,0.0298,0.0296,0.0297,0.034,0.0343,0.0336,0.0354,0.0356,0.0361,0.0362,0.0363,0.0363,0,0,0,0,0,0,0,0.03,0.03,0.0297,0.0306,0.0306,0.0295,0.0295,0.0308,0.0317,0.0298,0.0299,0.0297,0.0341,0.0335,0.0338,0.0357,0.0361,0.0362,0.0363,0.0364,0.0461,0.0463,0,0,0,0,0,0,0.0304,0.03,0.0297,0.0296,0.0305,0.0294,0.0294,0.0296,0.0315,0.0318,0.0296,0.0298,0.0331,0.0336,0.034,0.0411,0.0363,0.0364,0.0365,0.0459,0.0461,0.0463,0,0,0,0,0,0,0.0305,0.0304,0.0298,0.0298,0.0296,0.0294,0.0296,0.0296,0.0293,0.0313,0.0317,0.0294,0.0332,0.0338,0.0351,0.0411,0.0365,0.0366,0.0457,0.046,0.0462,0.0504,0,0,0,0,0,0,0.0305,0.0305,0.0307,0.0298,0.0296,0.0284,0.0295,0.0295,0.0291,0.0292,0.0312,0.0318,0.0333,0.0348,0.0352,0.0412,0.0368,0.0455,0.0459,0.0461,0.0501,0.0508,0.0514,0,0,0,0,0,0.0305,0.0304,0.0307,0.0307,0.03,0.0284,0.0282,0.0282,0.029,0.0283,0.0298,0.0318,0.0372,0.0349,0.0354,0.0416,0.0454,0.0458,0.0461,0.0498,0.0507,0.0514,0,0,0,0,0,0,0.0303,0.0305,0.0308,0.0307,0.0296,0.0286,0.0278,0.028,0.0284,0.029,0.0312,0.0318,0.0358,0.0371,0.0345,0.0454,0.0427,0.0432,0.0454,0.0462,0.0468,0.0521,0.0369,0,0,0,0,0,0.0305,0.0312,0.03,0.0302,0.0292,0.0285,0.0279,0.0279,0.028,0.0282,0.0297,0.0331,0.0375,0.0402,0.0422,0.0466,0.0505,0.0518,0.0525,0.053,0.0578,0.071,0.0734,0.0475,0.0475,0.0475,0,0,0.031,0.0308,0.0315,0.0303,0.0293,0.0294,0.0283,0.0271,0.0298,0.029,0.0321,0.0336,0.0385,0.0439,0.0463,0.0461,0.0603,0.0535,0.0539,0.0585,0.0717,0.0742,0.0765,0.0477,0.0477,0.0477,0,0,0.0312,0.0312,0.0312,0.0305,0.029,0.0293,0.029,0.0277,0.0294,0.0307,0.0337,0.0399,0.0414,0.0503,0.0544,0.0603,0.062,0.0594,0.069,0.0816,0.084,0.0861,0.0852,0.0873,0.0615,0.0615,0.0615,0,0.0311,0.0324,0.0307,0.0301,0.0317,0.0297,0.0311,0.0319,0.032,0.0371,0.0322,0.0449,0.0473,0.063,0.0646,0.0629,0.0643,0.0652,0.0828,0.0851,0.0872,0.0859,0.0882,0.0618,0.0618,0.0617,0.0617,0,0.0315,0.0327,0.0321,0.0329,0.0337,0.034,0.0355,0.0378,0.039,0.0423,0.0531,0.0561,0.0664,0.0676,0.0673,0.0855,0.0788,0.0805,0.0811,0.0901,0.0879,0.0902,0.0621,0.062,0.062,0.0619,0,0,0.0306,0.0326,0.0325,0.0357,0.0361,0.0376,0.0431,0.0504,0.0589,0.0593,0.0728,0.08,0.083,0.0882,0.0908,0.1015,0.113,0.0969,0.0975,0.0964,0.1308,0.1187,0.1198,0.1172,0.1179,0.1184,0.1198,0,0.0316,0.0344,0.0354,0.0407,0.0431,0.0463,0.0532,0.0602,0.0657,0.0769,0.0859,0.0961,0.0906,0.0965,0.1068,0.1141,0.1206,0.1119,0.1222,0.1224,0.1113,0.123,0.1199,0.1207,0.122,0.1224,0.1227,0,0.0313,0.0346,0.04,0.0496,0.0511,0.0548,0.0699,0.0755,0.0908,0.0958,0.1084,0.1126,0.1297,0.1221,0.14,0.1336,0.1328,0.1351,0.1353,0.1264,0.1152,0.114,0.1248,0.1269,0.1262,0.1259,0.1257,0,0.0334,0.0385,0.0452,0.0472,0.0562,0.0627,0.0689,0.0825,0.0923,0.1093,0.1182,0.1346,0.1448,0.1518,0.1516,0.148,0.1665,0.1632,0.1499,0.1483,0.1497,0.1474,0.1663,0.1759,0.1759,0.1759,0.1759,0,0.0354,0.0403,0.047,0.0504,0.0624,0.0666,0.0818,0.0903,0.1063,0.1217,0.1285,0.1431,0.1536,0.1623,0.1596,0.1607,0.1729,0.1551,0.1529,0.1493,0.1471,0.1519,0.1512,0.1759,0.1759,0.1759,0.1759,0,0.0371,0.0401,0.0489,0.0593,0.0632,0.0722,0.0876,0.0999,0.1114,0.1321,0.1381,0.1549,0.1656,0.1673,0.1789,0.1709,0.1723,0.1677,0.1547,0.1511,0.1395,0.1387,0.1521,0.1571,0.157,0.1568,0.1566,0,0.0392,0.0429,0.0551,0.0617,0.0666,0.0791,0.0895,0.1024,0.1155,0.1391,0.1508,0.1648,0.1759,0.1812,0.1732,0.1659,0.167,0.1538,0.1503,0.1428,0.1407,0.139,0.1425,0.149,0.1488,0.1486,0.1484,0,0.045,0.0484,0.0566,0.0683,0.0789,0.0926,0.1069,0.1173,0.1348,0.1495,0.1695,0.1791,0.1817,0.1777,0.1634,0.1571,0.1556,0.1491,0.1536,0.1478,0.1366,0.1386,0.1333,0.1468,0.147,0.1471,0.1472,0.1472,0.0514,0.0579,0.0669,0.0777,0.0898,0.1048,0.1161,0.1311,0.1497,0.1711,0.1789,0.1902,0.1821,0.1647,0.1567,0.1385,0.1428,0.134,0.1359,0.1364,0.1388,0.1213,0.125,0.1251,0.1251,0.1252,0.1252,0,0.061,0.0662,0.0758,0.0903,0.1021,0.108,0.1277,0.1382,0.1572,0.1742,0.1875,0.1834,0.1735,0.1601,0.1352,0.1283,0.1306,0.1272,0.1319,0.1382,0.1349,0.1322,0.1231,0.1231,0.1231,0.1231,0.1231,0.1231,0.068,0.0768,0.0789,0.0969,0.1072,0.1244,0.1351,0.1494,0.1617,0.174,0.1757,0.1785,0.1699,0.1417,0.1294,0.1272,0.1361,0.1269,0.1363,0.1377,0.1388,0.1398,0.1378,0.1301,0.1301,0.1419,0.142,0.1421]}],[{"header":{"parameterUnit":"m.s-1","parameterCategory":2,"la1":30.2991,"la2":30.254,"lo1":-89.0895,"lo2":-89.0444,"dy":0.0017,"dx":0.0017,"nx":28,"ny":28,"refTime":"2023-07-18T21:00:00:Z","depth":"2","parameterNumber":2,"parameterNumberName":"U-component_of_CURRENTS"},"data":[0,0,0,0,0,0,0,0,0,0,0,0,0,0,0,0,0,0,0,0,0,0,0,0,0,0,0,0,0,0,0,0,0,0,0,0,0,0,0,0,0,0,0,0,0,0,0,0,0,0,0,0,0,0,0,0,0,0,0.1958,0.1959,0,0.2058,0.206,0.2062,0.2043,0.204,0.2037,0.2035,0.1994,0.1995,0.1997,0,0,0,0,0,0,0,0,0,0,0,0,0,0.1955,0.1955,0.1958,0.1959,0.1959,0.2058,0.206,0.2062,0.2043,0.204,0.2037,0.2034,0.1993,0.1995,0.1997,0,0,0,0,0,0,0,0,0,0,0,0,0,0.2004,0.1955,0.1958,0.1954,0.1954,0.2057,0.206,0.2063,0.2044,0.204,0.2036,0.2032,0.1993,0.1995,0.1997,0.2091,0,0,0.2004,0.2004,0,0,0,0,0,0,0,0,0.2001,0.2006,0.1955,0.1955,0.1955,0.2025,0.2043,0.2062,0.2045,0.202,0.2035,0.203,0.1988,0.199,0.2034,0.2089,0.2087,0.2004,0.2005,0.2006,0.2007,0,0,0,0,0,0,0,0.1998,0.2002,0.2008,0.1955,0.1955,0.2016,0.2018,0.2049,0.203,0.2022,0.2018,0.2015,0.1988,0.2032,0.2032,0.2086,0.2004,0.2006,0.2007,0.2008,0.2181,0.2184,0,0,0,0,0,0,0.196,0.1998,0.2004,0.201,0.1958,0.2018,0.2021,0.2015,0.2033,0.203,0.2019,0.2014,0.2031,0.203,0.203,0.2139,0.2006,0.2008,0.2009,0.2178,0.2182,0.2185,0,0,0,0,0,0,0.196,0.196,0.2,0.1999,0.2007,0.202,0.2015,0.2018,0.2069,0.203,0.2026,0.2063,0.2027,0.2027,0.2068,0.2136,0.2009,0.2011,0.2174,0.2179,0.2184,0.2357,0,0,0,0,0,0,0.1959,0.1959,0.197,0.1996,0.2005,0.2032,0.2018,0.2023,0.2067,0.2063,0.2068,0.2059,0.2024,0.2066,0.2071,0.2136,0.2012,0.217,0.2176,0.2182,0.2347,0.2367,0.2384,0,0,0,0,0,0.1959,0.1973,0.197,0.1971,0.2009,0.2031,0.2044,0.2047,0.2074,0.2085,0.2113,0.206,0.2108,0.2072,0.2076,0.2144,0.2166,0.2174,0.2181,0.2338,0.2363,0.2384,0,0,0,0,0,0,0.1977,0.1973,0.1969,0.1981,0.1991,0.2023,0.2055,0.2077,0.2124,0.2127,0.2114,0.2109,0.2161,0.214,0.2101,0.2211,0.2126,0.2135,0.2243,0.2266,0.2285,0.2306,0.2014,0,0,0,0,0,0.1987,0.2009,0.1994,0.2019,0.2018,0.2057,0.2083,0.2079,0.2109,0.2129,0.2124,0.2148,0.2205,0.2221,0.2225,0.231,0.2314,0.2352,0.2371,0.2387,0.2408,0.2584,0.2622,0.221,0.221,0.221,0,0,0.199,0.2012,0.2012,0.2028,0.2053,0.2054,0.2065,0.2094,0.2112,0.2118,0.2156,0.2202,0.2238,0.231,0.2334,0.2299,0.2481,0.2396,0.241,0.2422,0.2596,0.2637,0.2673,0.2215,0.2214,0.2213,0,0,0.2021,0.2038,0.2049,0.2059,0.208,0.209,0.2099,0.2116,0.2136,0.2185,0.2219,0.2335,0.2343,0.2435,0.2481,0.2622,0.2567,0.2596,0.2727,0.2899,0.2936,0.2968,0.2917,0.2944,0.2619,0.2619,0.2619,0,0.2033,0.2047,0.2059,0.2076,0.2094,0.2103,0.211,0.214,0.2169,0.2219,0.2181,0.2376,0.2422,0.2618,0.2682,0.2672,0.2677,0.2641,0.2929,0.2962,0.2992,0.2933,0.2961,0.2628,0.2627,0.2626,0.2625,0,0.2024,0.2067,0.2087,0.2103,0.212,0.214,0.2141,0.2173,0.2207,0.2243,0.2394,0.2504,0.2636,0.2688,0.2743,0.2999,0.2892,0.2926,0.2878,0.3045,0.2969,0.2995,0.2642,0.2638,0.2635,0.2633,0,0,0.1993,0.2063,0.2072,0.2111,0.214,0.2152,0.2197,0.2252,0.2321,0.2376,0.251,0.2716,0.2808,0.2875,0.2984,0.317,0.3397,0.3163,0.3168,0.3117,0.3625,0.3185,0.3168,0.3501,0.3509,0.3515,0.3445,0,0.1996,0.2043,0.2068,0.2126,0.2157,0.2194,0.2242,0.23,0.236,0.2468,0.2654,0.2799,0.2864,0.2993,0.3198,0.3368,0.349,0.3401,0.3464,0.3461,0.3064,0.3197,0.3017,0.2912,0.3469,0.3473,0.3476,0,0.2002,0.2029,0.2075,0.2189,0.2198,0.2225,0.2333,0.2372,0.2522,0.2588,0.2781,0.2882,0.3191,0.3219,0.3558,0.3496,0.3582,0.3672,0.3672,0.3232,0.3076,0.2858,0.2937,0.3518,0.3515,0.3512,0.3509,0,0.2015,0.2082,0.2131,0.215,0.2218,0.2273,0.2318,0.243,0.2502,0.2698,0.2793,0.3065,0.3244,0.3459,0.3593,0.3639,0.3853,0.3928,0.3562,0.3522,0.3361,0.3292,0.4152,0.4152,0.4153,0.4153,0.4153,0,0.206,0.2114,0.2147,0.216,0.2228,0.2286,0.239,0.2466,0.2615,0.2744,0.2889,0.303,0.3346,0.3463,0.3595,0.3567,0.3839,0.3578,0.3523,0.3388,0.3327,0.387,0.3839,0.415,0.415,0.4151,0.4152,0,0.2109,0.214,0.2193,0.2227,0.2256,0.2302,0.2418,0.2485,0.2625,0.2811,0.2897,0.3073,0.3205,0.3311,0.3586,0.3504,0.3562,0.3465,0.3131,0.3036,0.3109,0.3088,0.3123,0.3108,0.3095,0.3085,0.3076,0,0.2114,0.2151,0.22,0.223,0.2256,0.233,0.2381,0.2497,0.2579,0.2823,0.2909,0.304,0.3056,0.3049,0.303,0.2978,0.3213,0.2666,0.2757,0.3084,0.303,0.3028,0.3023,0.2589,0.2577,0.2567,0.2559,0,0.2091,0.2141,0.2168,0.2221,0.2276,0.2319,0.2415,0.2461,0.2631,0.2741,0.2834,0.2842,0.2797,0.26,0.2389,0.2378,0.2658,0.2442,0.3027,0.28,0.2557,0.2508,0.2529,0.2471,0.248,0.2486,0.2491,0.2494,0.207,0.2098,0.2156,0.221,0.227,0.2292,0.2288,0.2365,0.2422,0.2501,0.2605,0.2484,0.2438,0.1999,0.1877,0.1771,0.2017,0.1958,0.2005,0.2059,0.1933,0.1674,0.1388,0.139,0.1392,0.1394,0.1396,0,0.2023,0.2102,0.2133,0.2176,0.2185,0.2267,0.2294,0.2217,0.22,0.222,0.2193,0.1873,0.1609,0.1581,0.1304,0.1161,0.1343,0.1079,0.1403,0.1486,0.1561,0.1428,0.0741,0.0739,0.0737,0.0735,0,0,0.203,0.2062,0.2073,0.2064,0.2117,0.2089,0.2079,0.1952,0.1889,0.1687,0.1571,0.1539,0.153,0.1164,0.1053,0.0874,0.1199,0.0805,0.1335,0.1807,0.1881,0.2053,0.193,0,0,0,0,0]},{"header":{"parameterUnit":"m.s-1","parameterCategory":2,"la1":30.2991,"la2":30.254,"lo1":-89.0895,"lo2":-89.0444,"dy":0.0017,"dx":0.0017,"nx":28,"ny":28,"refTime":"2023-07-18T21:00:00:Z","depth":"2","parameterNumber":3,"parameterNumberName":"V-component_of_CURRENTS"},"data":[0,0,0,0,0,0,0,0,0,0,0,0,0,0,0,0,0,0,0,0,0,0,0,0,0,0,0,0,0,0,0,0,0,0,0,0,0,0,0,0,0,0,0,0,0,0,0,0,0,0,0,0,0,0,0,0,0,0,0.0007,0.0007,0,-0.0013,-0.0013,-0.0013,0.0005,0.0006,0.0007,0.0007,0.0047,0.0047,0.0047,0,0,0,0,0,0,0,0,0,0,0,0,0,0.0022,0.0021,0.0007,0.0007,0.0006,-0.0013,-0.0013,-0.0013,0.0005,0.0006,0.0007,0.0008,0.0047,0.0047,0.0047,0,0,0,0,0,0,0,0,0,0,0,0,0,0.0009,0.0021,0.0007,0.0014,0.0015,-0.0013,-0.0013,-0.0013,0.0005,0.0006,0.0007,0.0008,0.0047,0.0047,0.0047,0.0025,0,0,0.0049,0.0049,0,0,0,0,0,0,0,0,0.001,0.0008,0.0013,0.0014,0.0014,0.0001,0.0007,0.0003,0.0004,0.0007,0.0007,0.0009,0.0037,0.0038,0.0029,0.0027,0.0028,0.0049,0.0049,0.0049,0.0049,0,0,0,0,0,0,0,0.0011,0.0009,-0.0002,0.0013,0.0013,0.0005,0.0005,0.0005,0.0015,0.0007,0.0009,0.0008,0.0037,0.0029,0.003,0.0029,0.0049,0.0049,0.0049,0.0049,0.0024,0.0023,0,0,0,0,0,0,0.0016,0.001,-0.0001,-0.0002,0.0016,0.0004,0.0004,0.0003,0.0014,0.0017,0.0007,0.0009,0.0027,0.003,0.0032,0.0042,0.0049,0.0049,0.005,0.0025,0.0024,0.0023,0,0,0,0,0,0,0.0016,0.0015,-0.0001,0.0004,0.0002,0.0003,0.0001,0.0002,0.0002,0.0013,0.0017,0.0007,0.0028,0.0031,0.0025,0.0042,0.005,0.005,0.0026,0.0025,0.0024,0.0039,0,0,0,0,0,0,0.0016,0.0015,0.0014,0.0005,0.0002,-0.003,0.0,0.0001,-0.0001,0.0002,0.0015,0.0019,0.003,0.0024,0.0026,0.0043,0.005,0.0027,0.0026,0.0024,0.0039,0.0038,0.0037,0,0,0,0,0,0.0017,0.0005,0.0014,0.0013,0.0002,-0.0031,-0.0035,-0.003,-0.0002,-0.0021,-0.0005,0.0019,0.0015,0.0023,0.0025,0.0043,0.0028,0.0026,0.0024,0.004,0.0038,0.0037,0,0,0,0,0,0,0.0011,0.0005,0.0016,0.0004,-0.0015,-0.0028,-0.004,-0.003,-0.0033,-0.0022,0.0002,0.0005,0.0012,0.001,0.0019,0.0026,0.0028,0.0026,0.0039,0.0038,0.0036,0.0078,0.0051,0,0,0,0,0,0.001,0.0001,-0.001,-0.0021,-0.0029,-0.0031,-0.0039,-0.004,-0.0043,-0.0042,-0.0041,-0.0027,0.0001,0.0006,0.0008,0.0004,0.0072,0.0016,0.0014,0.0014,0.0045,0.0221,0.0241,0.0016,0.0016,0.0016,0,0,0.0011,0.0002,0.0001,-0.0022,-0.003,-0.0051,-0.0034,-0.0056,-0.006,-0.0038,-0.0053,-0.0035,-0.0003,-0.0,0.0003,0.0004,0.0087,0.0011,0.0011,0.0044,0.0221,0.0245,0.0265,0.0015,0.0015,0.0015,0,0,-0.0015,-0.0006,-0.003,-0.0047,-0.0069,-0.007,-0.0074,-0.0099,-0.0097,-0.0123,-0.0078,-0.0037,-0.0067,-0.0001,0.0027,0.002,0.0079,-0.0008,0.0025,0.0194,0.0216,0.0237,0.0259,0.0283,-0.0009,-0.0009,-0.0009,0,-0.0017,-0.0033,-0.0045,-0.0076,-0.0068,-0.0075,-0.0085,-0.01,-0.0127,-0.0101,-0.0135,-0.0067,-0.0044,0.0057,0.0047,0.003,0.008,0.0034,0.0202,0.0224,0.0246,0.0264,0.029,-0.0008,-0.0008,-0.0009,-0.0009,0,-0.0064,-0.0069,-0.0085,-0.0108,-0.0114,-0.0127,-0.0134,-0.0145,-0.0143,-0.0137,-0.0082,-0.0053,0.0015,0.0012,0.0025,0.0178,0.0141,0.0189,0.0223,0.0271,0.0283,0.031,-0.0008,-0.0008,-0.0008,-0.0008,0,0,-0.0073,-0.0106,-0.0107,-0.0093,-0.0116,-0.0115,-0.0121,-0.0097,-0.0044,-0.0091,0.0002,0.0031,0.0071,0.0108,0.0146,0.0269,0.0425,0.028,0.0288,0.0329,0.07,0.0538,0.055,0.0518,0.0524,0.053,0.0616,0,-0.0093,-0.0125,-0.0135,-0.0127,-0.0124,-0.0108,-0.009,-0.0069,-0.005,0.0015,0.0076,0.0155,0.0101,0.0167,0.0277,0.0433,0.0509,0.039,0.0624,0.0629,0.0509,0.0584,0.0566,0.0633,0.0643,0.0647,0.065,0,-0.0137,-0.0131,-0.0136,-0.0077,-0.0069,-0.0071,0.0025,0.0033,0.0115,0.0143,0.0218,0.0266,0.0422,0.0385,0.0628,0.0554,0.0617,0.0695,0.0702,0.0584,0.0522,0.0603,0.0682,0.0695,0.0692,0.0688,0.0685,0,-0.0125,-0.012,-0.0101,-0.0095,-0.0055,-0.0028,0.0003,0.0069,0.0139,0.0244,0.034,0.046,0.0599,0.0712,0.0796,0.0759,0.105,0.1037,0.0915,0.0898,0.0947,0.0924,0.1214,0.1214,0.1214,0.1213,0.1213,0,-0.0138,-0.012,-0.0093,-0.0085,-0.0005,0.0002,0.0099,0.0139,0.0257,0.0409,0.0422,0.0597,0.0714,0.0856,0.0878,0.0958,0.1117,0.0941,0.0953,0.0928,0.0904,0.1026,0.1003,0.1216,0.1216,0.1215,0.1215,0,-0.0152,-0.0151,-0.0109,-0.0045,-0.0017,0.0035,0.0151,0.0249,0.0331,0.0545,0.0604,0.078,0.0953,0.097,0.1185,0.1093,0.1169,0.1139,0.1,0.0993,0.0859,0.0836,0.1037,0.1033,0.103,0.1027,0.1025,0,-0.0166,-0.0158,-0.0075,-0.002,0.0002,0.0087,0.0176,0.0267,0.0408,0.0683,0.0838,0.1015,0.1151,0.1257,0.1189,0.113,0.1148,0.1008,0.0942,0.0872,0.0864,0.0845,0.0826,0.0977,0.0975,0.0973,0.0971,0,-0.0146,-0.0129,-0.0068,0.0031,0.0119,0.0258,0.0398,0.0529,0.0715,0.0886,0.1178,0.1283,0.1328,0.128,0.1099,0.1057,0.1,0.0953,0.1079,0.0976,0.0811,0.0802,0.0789,0.0952,0.0954,0.0955,0.0956,0.0957,-0.0097,-0.004,0.004,0.0137,0.0245,0.0456,0.0603,0.0786,0.1023,0.1283,0.1372,0.1453,0.1357,0.111,0.1003,0.0847,0.0885,0.0798,0.081,0.0822,0.0753,0.0587,0.0665,0.0665,0.0665,0.0665,0.0665,0,0.0025,0.0076,0.0157,0.0328,0.0476,0.0517,0.0789,0.0938,0.1221,0.1345,0.1478,0.1325,0.1211,0.1074,0.0822,0.0663,0.0706,0.0601,0.0704,0.0722,0.0739,0.0669,0.0557,0.0556,0.0556,0.0555,0,0,0.0106,0.0225,0.0257,0.0516,0.0633,0.0882,0.105,0.121,0.1306,0.1405,0.1381,0.1356,0.1207,0.0985,0.0825,0.0685,0.0731,0.065,0.0751,0.0909,0.0927,0.0863,0.0775,0,0,0,0,0]}],[{"header":{"parameterUnit":"m.s-1","parameterCategory":2,"la1":30.2991,"la2":30.254,"lo1":-89.0895,"lo2":-89.0444,"dy":0.0017,"dx":0.0017,"nx":28,"ny":28,"refTime":"2023-07-18T21:00:00:Z","depth":"4","parameterNumber":2,"parameterNumberName":"U-component_of_CURRENTS"},"data":[0,0,0,0,0,0,0,0,0,0,0,0,0,0,0,0,0,0,0,0,0,0,0,0,0,0,0,0,0,0,0,0,0,0,0,0,0,0,0,0,0,0,0,0,0,0,0,0,0,0,0,0,0,0,0,0,0,0,0.068,0.068,0,0.061,0.0609,0.0608,0.0661,0.0664,0.0666,0.0669,0.0729,0.0728,0.0727,0,0,0,0,0,0,0,0,0,0,0,0,0,0.0754,0.0753,0.068,0.068,0.0679,0.061,0.0609,0.0608,0.0661,0.0664,0.0667,0.067,0.0729,0.0728,0.0727,0,0,0,0,0,0,0,0,0,0,0,0,0,0.0703,0.0752,0.068,0.07,0.0702,0.0611,0.0609,0.0607,0.066,0.0664,0.0668,0.0672,0.073,0.0728,0.0727,0.0638,0,0,0.0723,0.0722,0,0,0,0,0,0,0,0,0.0706,0.07,0.0698,0.0699,0.07,0.0652,0.0657,0.0626,0.0659,0.0671,0.0669,0.0674,0.0715,0.0715,0.0685,0.0641,0.0644,0.0723,0.0722,0.0721,0.0721,0,0,0,0,0,0,0,0.071,0.0703,0.0648,0.0697,0.0699,0.0677,0.0675,0.065,0.0671,0.0671,0.0675,0.0673,0.0717,0.0686,0.0688,0.0645,0.0723,0.0722,0.0721,0.072,0.0694,0.0695,0,0,0,0,0,0,0.0727,0.0706,0.0651,0.0647,0.0718,0.0673,0.067,0.066,0.0668,0.0674,0.0669,0.0676,0.0687,0.0689,0.069,0.0728,0.0721,0.072,0.0719,0.0694,0.0694,0.0695,0,0,0,0,0,0,0.0729,0.0722,0.0654,0.0679,0.0669,0.0669,0.0656,0.0657,0.0654,0.0667,0.0675,0.0671,0.069,0.0692,0.0675,0.0726,0.072,0.0718,0.0694,0.0694,0.0695,0.0712,0,0,0,0,0,0,0.0731,0.0723,0.0707,0.068,0.0669,0.0594,0.0653,0.0653,0.0647,0.0655,0.0669,0.0677,0.0693,0.0677,0.0674,0.0724,0.0717,0.0694,0.0694,0.0694,0.0712,0.0713,0.0715,0,0,0,0,0,0.0734,0.0668,0.0706,0.0699,0.0651,0.0592,0.0582,0.0593,0.0643,0.0612,0.0636,0.0678,0.068,0.0673,0.067,0.0722,0.0694,0.0694,0.0694,0.0711,0.0713,0.0715,0,0,0,0,0,0,0.0689,0.0667,0.0708,0.0644,0.0632,0.0603,0.055,0.0592,0.058,0.0603,0.0639,0.0645,0.0648,0.0666,0.0659,0.0716,0.0709,0.0709,0.0723,0.0725,0.0726,0.0785,0.0716,0,0,0,0,0,0.0676,0.0631,0.0627,0.0584,0.0558,0.0567,0.0545,0.0575,0.0567,0.0568,0.0581,0.0613,0.0635,0.0666,0.065,0.0664,0.0685,0.0708,0.0709,0.071,0.0756,0.0797,0.0807,0.0696,0.0695,0.0695,0,0,0.0663,0.0635,0.0622,0.0573,0.0549,0.0507,0.056,0.0524,0.0544,0.0574,0.0566,0.0582,0.0625,0.0641,0.0654,0.0679,0.0742,0.0711,0.0712,0.0758,0.0798,0.081,0.082,0.0696,0.0696,0.0696,0,0,0.0566,0.0568,0.0486,0.0468,0.044,0.0454,0.0454,0.0438,0.0477,0.048,0.0522,0.0583,0.0575,0.065,0.0689,0.069,0.0714,0.0684,0.0781,0.0818,0.0829,0.0839,0.0834,0.0844,0.0726,0.0727,0.0727,0,0.0563,0.0472,0.0456,0.0372,0.0379,0.0434,0.0396,0.0414,0.042,0.0478,0.0486,0.0568,0.0606,0.0708,0.0736,0.0705,0.0699,0.0772,0.0823,0.0834,0.0843,0.0837,0.0847,0.0727,0.0727,0.0727,0.0727,0,0.0405,0.0357,0.0293,0.0243,0.0238,0.021,0.0263,0.0297,0.0379,0.0438,0.0532,0.0581,0.0677,0.0695,0.0733,0.084,0.0798,0.0785,0.0824,0.0856,0.0846,0.0856,0.0729,0.0728,0.0728,0.0728,0,0,0.0392,0.0224,0.0223,0.022,0.0196,0.0207,0.0236,0.0316,0.0409,0.0455,0.0574,0.0669,0.075,0.0802,0.0857,0.0932,0.0997,0.0913,0.0914,0.0919,0.104,0.0937,0.0938,0.0977,0.098,0.0982,0.0988,0,0.031,0.0149,0.0113,0.0087,0.0036,0.0134,0.0175,0.0282,0.0387,0.0493,0.0641,0.0741,0.0773,0.0864,0.0936,0.0967,0.1032,0.0995,0.1002,0.1003,0.0918,0.0951,0.0992,0.0996,0.0999,0.1,0.1002,0,0.0198,0.0122,0.0027,0.0066,0.0066,0.0097,0.0278,0.0325,0.0487,0.0581,0.0724,0.0802,0.0959,0.0971,0.1077,0.1038,0.1069,0.1086,0.1085,0.1009,0.0923,0.0968,0.1021,0.1019,0.1018,0.1016,0.1015,0,0.0206,0.0116,0.0068,0.0064,0.007,0.0151,0.023,0.0374,0.0466,0.0664,0.0753,0.0895,0.1009,0.1053,0.1127,0.1103,0.1197,0.1155,0.1086,0.1076,0.1159,0.1149,0.1247,0.1247,0.1247,0.1247,0.1247,0,0.0136,0.0111,0.0092,0.0066,0.0148,0.0184,0.0324,0.0426,0.0574,0.0692,0.0819,0.0917,0.1042,0.1109,0.1133,0.1137,0.1203,0.1124,0.1091,0.1155,0.1146,0.1163,0.1153,0.1248,0.1248,0.1248,0.1247,0,0.0077,0.0033,0.001,0.0064,0.0115,0.0195,0.0361,0.0462,0.0599,0.0754,0.0828,0.0961,0.1036,0.1111,0.1192,0.1153,0.1165,0.1159,0.1217,0.1182,0.1005,0.0996,0.1053,0.105,0.1047,0.1045,0.1043,0,-0.0014,-0.0054,0.002,0.0073,0.0098,0.0229,0.0322,0.0475,0.0581,0.0762,0.083,0.0954,0.104,0.1058,0.1104,0.112,0.1125,0.111,0.1084,0.1033,0.0995,0.099,0.0984,0.1039,0.1038,0.1037,0.1037,0,-0.0143,-0.0098,-0.0085,0.0015,0.0129,0.0231,0.0385,0.0463,0.0648,0.0752,0.087,0.0921,0.0987,0.1012,0.1059,0.1059,0.1097,0.1082,0.1087,0.1062,0.1016,0.098,0.0978,0.1027,0.1029,0.103,0.103,0,-0.0187,-0.0172,-0.0112,-0.0006,0.0102,0.0221,0.0316,0.047,0.0582,0.0802,0.0812,0.0913,0.1,0.0977,0.0991,0.1007,0.0979,0.0948,0.096,0.097,0.0936,0.0865,0.0826,0,0,0,0,0,-0.0214,-0.0185,-0.0125,-0.0002,0.0092,0.0175,0.0346,0.0446,0.062,0.0705,0.0782,0.085,0.0884,0.0883,0.0881,0.0889,0.095,0.0874,0.0912,0.0977,0.0987,0.0952,0,0,0,0,0,0,-0.0216,-0.018,-0.0148,-0.0041,0.0052,0.0172,0.0287,0.0414,0.0487,0.0649,0.0676,0.0767,0.0802,0.0884,0.0851,0.0855,0.0857,0.0922,0.0919,0.0971,0.098,0.0989,0.0956,0,0,0,0,0]},{"header":{"parameterUnit":"m.s-1","parameterCategory":2,"la1":30.2991,"la2":30.254,"lo1":-89.0895,"lo2":-89.0444,"dy":0.0017,"dx":0.0017,"nx":28,"ny":28,"refTime":"2023-07-18T21:00:00:Z","depth":"4","parameterNumber":3,"parameterNumberName":"V-component_of_CURRENTS"},"data":[0,0,0,0,0,0,0,0,0,0,0,0,0,0,0,0,0,0,0,0,0,0,0,0,0,0,0,0,0,0,0,0,0,0,0,0,0,0,0,0,0,0,0,0,0,0,0,0,0,0,0,0,0,0,0,0,0,0,0.0077,0.0078,0,0.0128,0.0129,0.013,0.0106,0.0105,0.0103,0.0102,0.007,0.007,0.007,0,0,0,0,0,0,0,0,0,0,0,0,0,0.0016,0.0017,0.0077,0.0078,0.0078,0.0128,0.0129,0.013,0.0106,0.0105,0.0103,0.0101,0.0069,0.007,0.0071,0,0,0,0,0,0,0,0,0,0,0,0,0,0.0054,0.0018,0.0077,0.0072,0.0072,0.0128,0.0129,0.013,0.0107,0.0105,0.0102,0.01,0.0069,0.007,0.0071,0.0117,0,0,0.0073,0.0073,0,0,0,0,0,0,0,0,0.0051,0.0056,0.0072,0.0072,0.0072,0.0108,0.0096,0.0121,0.0107,0.0095,0.0102,0.0099,0.0075,0.0075,0.0093,0.0115,0.0114,0.0073,0.0073,0.0073,0.0074,0,0,0,0,0,0,0,0.0049,0.0054,0.0099,0.0073,0.0073,0.0086,0.0089,0.0101,0.0096,0.0096,0.0094,0.0098,0.0075,0.0092,0.0091,0.0113,0.0073,0.0073,0.0074,0.0074,0.0143,0.0145,0,0,0,0,0,0,0.004,0.0052,0.0097,0.01,0.0055,0.0088,0.0091,0.0099,0.0097,0.0095,0.01,0.0097,0.0092,0.0091,0.009,0.0128,0.0073,0.0074,0.0074,0.0142,0.0144,0.0145,0,0,0,0,0,0,0.0038,0.0044,0.0095,0.0076,0.0083,0.0091,0.0101,0.0101,0.0114,0.0101,0.0097,0.011,0.009,0.0089,0.0119,0.0126,0.0074,0.0075,0.014,0.0143,0.0145,0.0213,0,0,0,0,0,0,0.0036,0.0043,0.0051,0.0075,0.0083,0.0146,0.0103,0.0104,0.0119,0.0116,0.0109,0.0104,0.0089,0.0119,0.012,0.0126,0.0075,0.0138,0.0141,0.0144,0.0209,0.0217,0.0224,0,0,0,0,0,0.0034,0.0066,0.0051,0.0057,0.0092,0.0148,0.0155,0.0154,0.0122,0.0152,0.0144,0.0104,0.0135,0.0122,0.0123,0.0129,0.0137,0.014,0.0144,0.0205,0.0216,0.0224,0,0,0,0,0,0,0.0048,0.0067,0.0051,0.0086,0.0116,0.0143,0.0175,0.0161,0.0181,0.0174,0.0141,0.0139,0.0165,0.0147,0.0133,0.0157,0.0122,0.0126,0.0169,0.0178,0.0186,0.0182,0.0076,0,0,0,0,0,0.0053,0.0078,0.0098,0.0127,0.0147,0.0157,0.0177,0.0179,0.0196,0.0202,0.0192,0.0182,0.0184,0.0181,0.019,0.0214,0.0171,0.0214,0.0221,0.0228,0.0226,0.0157,0.0157,0.0156,0.0156,0.0156,0,0,0.006,0.0079,0.0088,0.0131,0.0155,0.0201,0.0166,0.0214,0.0235,0.0196,0.0229,0.022,0.02,0.0228,0.0234,0.0209,0.0215,0.0232,0.0238,0.0232,0.016,0.016,0.0159,0.0158,0.0158,0.0157,0,0,0.0115,0.0115,0.0161,0.0198,0.0242,0.0246,0.0258,0.0291,0.0291,0.0334,0.0295,0.0296,0.0313,0.0292,0.0281,0.0339,0.0266,0.0331,0.0357,0.0291,0.0289,0.0287,0.0267,0.0263,0.0324,0.0325,0.0325,0,0.0117,0.0174,0.0187,0.0254,0.0273,0.0265,0.0315,0.0333,0.0364,0.0355,0.0356,0.0347,0.0342,0.0327,0.0353,0.0354,0.0312,0.0322,0.0298,0.0295,0.0292,0.0271,0.0265,0.0328,0.0328,0.0327,0.0327,0,0.021,0.0257,0.0299,0.0356,0.0386,0.0435,0.0448,0.0467,0.0453,0.0447,0.0446,0.0443,0.0426,0.0422,0.0414,0.0382,0.0362,0.0321,0.0268,0.0295,0.0273,0.0266,0.0333,0.0332,0.0331,0.033,0,0,0.0202,0.0329,0.0343,0.0383,0.0435,0.0471,0.0502,0.0512,0.05,0.0526,0.0505,0.0524,0.0496,0.0483,0.0451,0.0397,0.037,0.0355,0.035,0.0327,0.0243,0.0271,0.0266,0.0305,0.0303,0.0302,0.0249,0,0.0258,0.0384,0.0424,0.0516,0.0568,0.0568,0.0585,0.0591,0.0573,0.0561,0.0531,0.0535,0.0522,0.0521,0.0462,0.0381,0.0347,0.039,0.0228,0.0224,0.0236,0.0256,0.0297,0.0243,0.0241,0.024,0.0239,0,0.033,0.0396,0.0506,0.057,0.0588,0.064,0.0626,0.0645,0.0615,0.0606,0.0583,0.056,0.0525,0.0508,0.038,0.0399,0.0345,0.028,0.0275,0.0266,0.0237,0.0202,0.0224,0.0225,0.0227,0.0228,0.0228,0,0.0322,0.0445,0.0523,0.0559,0.0636,0.0668,0.0683,0.0662,0.0661,0.0649,0.0645,0.0576,0.0564,0.0457,0.038,0.0367,0.0221,0.0183,0.0162,0.0164,0.0121,0.0123,0.0103,0.0103,0.0103,0.0103,0.0103,0,0.0364,0.0432,0.0541,0.06,0.0648,0.0692,0.072,0.0719,0.0708,0.0705,0.0682,0.065,0.0546,0.0463,0.037,0.0255,0.0222,0.0175,0.0144,0.016,0.0167,0.0118,0.0121,0.0101,0.0101,0.0102,0.0102,0,0.0372,0.0457,0.0547,0.0639,0.0673,0.0709,0.0776,0.0781,0.0778,0.0773,0.0793,0.0709,0.0605,0.0504,0.0336,0.0268,0.0146,0.0125,0.0193,0.0166,0.0137,0.0144,0.0075,0.0075,0.0075,0.0076,0.0076,0,0.0397,0.0451,0.0569,0.0624,0.0691,0.0757,0.0796,0.0821,0.0828,0.0795,0.0785,0.0717,0.0659,0.0442,0.0321,0.0174,0.0155,0.0119,0.0097,0.0153,0.013,0.0137,0.0143,0.0076,0.0076,0.0076,0.0077,0,0.04,0.0448,0.0512,0.0625,0.0711,0.0781,0.0846,0.0852,0.0868,0.0872,0.0794,0.0712,0.0589,0.0431,0.0353,0.0228,0.0142,0.0121,0.0119,0.0098,0.0154,0.0133,0.0138,0.0078,0.0077,0.0077,0.0077,0,0.0378,0.0406,0.0501,0.0604,0.0706,0.0788,0.082,0.0848,0.0856,0.0835,0.0795,0.0682,0.0616,0.0458,0.0351,0.0272,0.023,0.0197,0.019,0.0188,0.0237,0.0327,0.028,0,0,0,0,0,0.0356,0.0402,0.0477,0.0593,0.0699,0.0774,0.0845,0.0866,0.0882,0.0841,0.0828,0.0726,0.057,0.0466,0.039,0.0338,0.0212,0.0244,0.017,0.0084,0.0082,0.0124,0,0,0,0,0,0,0.034,0.0406,0.0456,0.0581,0.0666,0.0775,0.083,0.0843,0.0813,0.0812,0.0716,0.0707,0.0538,0.0621,0.0386,0.0358,0.03,0.0177,0.0175,0.0084,0.0083,0.0082,0.0124,0,0,0,0,0]}]]